• Em Portugal
  • Lista de países
  • Para 7 dias
  • Temperatura da água
  • Mapas de satélite
  • Mapa do tempo
  • Widgets de tempo
  • user-avatar
    Iniciar Sessão

    Previsão horária em Kemer

    Hoje, 23 Outubro, Segunda-feira

    Tempo Temperatura Precipitação Vento Pressão Humidade
    00:00 +20°C° 0 mm 1 m/s 748 mmHg 79%
    01:00 +20°C° 0 mm 1 m/s 748 mmHg 80%
    02:00 +20°C° 0 mm 1 m/s 747 mmHg 80%
    03:00 +20°C° 0 mm 1 m/s 747 mmHg 80%
    04:00 +19°C° 0 mm 1 m/s 747 mmHg 81%
    05:00 +19°C° 0 mm 1 m/s 747 mmHg 81%
    06:00 +20°C° 0 mm 1 m/s 747 mmHg 77%
    07:00 +21°C° 0 mm 1 m/s 747 mmHg 73%
    08:00 +22°C° 0 mm 1 m/s 747 mmHg 69%
    09:00 +23°C° 0 mm 2 m/s 747 mmHg 61%
    10:00 +24°C° 0 mm 2 m/s 747 mmHg 53%
    11:00 +26°C° 0 mm 2 m/s 747 mmHg 46%
    12:00 +26°C° 0 mm 3 m/s 747 mmHg 47%
    13:00 +26°C° 0 mm 3 m/s 747 mmHg 49%
    14:00 +26°C° 0 mm 3 m/s 746 mmHg 51%
    15:00 +25°C° 0 mm 3 m/s 746 mmHg 58%
    16:00 +24°C° 0 mm 2 m/s 746 mmHg 65%
    17:00 +21°C° 0 mm 2 m/s 746 mmHg 72%
    18:00 +21°C° 0 mm 2 m/s 746 mmHg 76%
    19:00 +20°C° 0 mm 2 m/s 746 mmHg 80%
    20:00 +20°C° 0 mm 1 m/s 746 mmHg 84%
    21:00 +20°C° 0 mm 1 m/s 746 mmHg 84%
    22:00 +20°C° 0 mm 1 m/s 746 mmHg 84%
    23:00 +19°C° 0 mm 1 m/s 746 mmHg 85%

    Amanhã, 24 Outubro, Terça-feira

    Tempo Temperatura Precipitação Vento Pressão Humidade
    00:00 +19°C° 0 mm 1 m/s 746 mmHg 85%
    01:00 +18°C° 0 mm 2 m/s 746 mmHg 84%
    02:00 +18°C° 0 mm 2 m/s 746 mmHg 84%
    03:00 +18°C° 0 mm 2 m/s 745 mmHg 84%
    04:00 +17°C° 0 mm 2 m/s 745 mmHg 84%
    05:00 +17°C° 0 mm 2 m/s 745 mmHg 84%
    06:00 +18°C° 0,1 mm 2 m/s 745 mmHg 79%
    07:00 +19°C° 0,1 mm 3 m/s 745 mmHg 75%
    08:00 +20°C° 0,1 mm 3 m/s 745 mmHg 70%
    09:00 +20°C° 0,5 mm 4 m/s 745 mmHg 71%
    10:00 +21°C° 0,5 mm 4 m/s 745 mmHg 71%
    11:00 +21°C° 0,5 mm 5 m/s 745 mmHg 71%
    12:00 +21°C° 2,2 mm 5 m/s 745 mmHg 76%
    13:00 +20°C° 2,2 mm 5 m/s 745 mmHg 80%
    14:00 +19°C° 2,2 mm 5 m/s 744 mmHg 85%
    15:00 +19°C° 4,5 mm 5 m/s 744 mmHg 87%
    16:00 +19°C° 4,5 mm 5 m/s 744 mmHg 89%
    17:00 +19°C° 4,5 mm 5 m/s 744 mmHg 91%
    18:00 +19°C° 3,1 mm 5 m/s 745 mmHg 90%
    19:00 +19°C° 3,1 mm 5 m/s 745 mmHg 90%
    20:00 +20°C° 3,1 mm 4 m/s 745 mmHg 89%
    21:00 +20°C° 1,4 mm 4 m/s 745 mmHg 89%
    22:00 +19°C° 1,4 mm 4 m/s 746 mmHg 89%
    23:00 +19°C° 1,4 mm 3 m/s 746 mmHg 89%

    Depois de amanhã, 25 Outubro, Quarta-feira

    Tempo Temperatura Precipitação Vento Pressão Humidade
    00:00 +19°C° 0,9 mm 3 m/s 746 mmHg 88%
    01:00 +19°C° 0,9 mm 3 m/s 746 mmHg 87%
    02:00 +19°C° 0,9 mm 3 m/s 746 mmHg 87%
    03:00 +19°C° 0,5 mm 2 m/s 746 mmHg 87%
    04:00 +18°C° 0,5 mm 2 m/s 747 mmHg 87%
    05:00 +18°C° 0,5 mm 2 m/s 747 mmHg 87%
    06:00 +18°C° 0,3 mm 2 m/s 747 mmHg 84%
    07:00 +19°C° 0,3 mm 2 m/s 748 mmHg 81%
    08:00 +19°C° 0,3 mm 2 m/s 748 mmHg 78%
    09:00 +20°C° 0,6 mm 2 m/s 748 mmHg 74%
    10:00 +20°C° 0,6 mm 2 m/s 749 mmHg 71%
    11:00 +21°C° 0,6 mm 3 m/s 749 mmHg 67%
    12:00 +20°C° 0,5 mm 2 m/s 749 mmHg 67%
    13:00 +20°C° 0,5 mm 2 m/s 749 mmHg 67%
    14:00 +20°C° 0,5 mm 2 m/s 749 mmHg 66%
    15:00 +20°C° 0,4 mm 2 m/s 749 mmHg 69%
    16:00 +19°C° 0,4 mm 2 m/s 750 mmHg 71%
    17:00 +19°C° 0,4 mm 2 m/s 750 mmHg 73%
    18:00 +18°C° 0,2 mm 2 m/s 750 mmHg 76%
    19:00 +19°C° 0,2 mm 1 m/s 751 mmHg 79%
    20:00 +18°C° 0,2 mm 1 m/s 751 mmHg 83%
    21:00 +18°C° 0,2 mm 1 m/s 751 mmHg 84%
    22:00 +17°C° 0,2 mm 2 m/s 752 mmHg 85%
    23:00 +16°C° 0,2 mm 2 m/s 752 mmHg 86%

    26 Outubro, Quinta-feira

    Tempo Temperatura Precipitação Vento Pressão Humidade
    00:00 +16°C° 0 mm 2 m/s 752 mmHg 86%
    01:00 +16°C° 0 mm 2 m/s 752 mmHg 86%
    02:00 +16°C° 0 mm 3 m/s 752 mmHg 86%
    03:00 +16°C° 0 mm 3 m/s 752 mmHg 85%
    04:00 +16°C° 0 mm 3 m/s 752 mmHg 83%
    05:00 +16°C° 0 mm 3 m/s 752 mmHg 82%
    06:00 +17°C° 0 mm 3 m/s 752 mmHg 78%
    07:00 +18°C° 0 mm 3 m/s 753 mmHg 73%
    08:00 +19°C° 0 mm 3 m/s 753 mmHg 69%
    09:00 +20°C° 0 mm 2 m/s 753 mmHg 63%
    10:00 +21°C° 0 mm 2 m/s 753 mmHg 57%
    11:00 +23°C° 0 mm 1 m/s 753 mmHg 51%
    12:00 +23°C° 0 mm 2 m/s 753 mmHg 50%
    13:00 +24°C° 0 mm 2 m/s 753 mmHg 50%
    14:00 +24°C° 0 mm 2 m/s 752 mmHg 50%
    15:00 +23°C° 0 mm 2 m/s 752 mmHg 55%
    16:00 +21°C° 0 mm 2 m/s 752 mmHg 59%
    17:00 +20°C° 0 mm 2 m/s 752 mmHg 64%
    18:00 +20°C° 0 mm 2 m/s 752 mmHg 63%
    19:00 +20°C° 0 mm 2 m/s 753 mmHg 63%
    20:00 +19°C° 0 mm 2 m/s 753 mmHg 62%
    21:00 +19°C° 0 mm 2 m/s 753 mmHg 63%
    22:00 +19°C° 0 mm 2 m/s 753 mmHg 63%
    23:00 +19°C° 0 mm 2 m/s 753 mmHg 64%

    27 Outubro, Sexta-feira

    Tempo Temperatura Precipitação Vento Pressão Humidade
    00:00 +18°C° 0 mm 2 m/s 753 mmHg 65%
    01:00 +18°C° 0 mm 2 m/s 752 mmHg 66%
    02:00 +18°C° 0 mm 2 m/s 752 mmHg 67%
    03:00 +18°C° 0 mm 2 m/s 752 mmHg 68%
    04:00 +18°C° 0 mm 3 m/s 752 mmHg 69%
    05:00 +17°C° 0 mm 3 m/s 752 mmHg 70%
    06:00 +18°C° 0 mm 3 m/s 752 mmHg 66%
    07:00 +19°C° 0 mm 3 m/s 752 mmHg 62%
    08:00 +20°C° 0 mm 3 m/s 752 mmHg 58%
    09:00 +21°C° 0 mm 3 m/s 751 mmHg 54%
    10:00 +23°C° 0 mm 2 m/s 751 mmHg 50%
    11:00 +24°C° 0 mm 2 m/s 751 mmHg 46%
    12:00 +24°C° 0 mm 2 m/s 751 mmHg 45%
    13:00 +25°C° 0 mm 2 m/s 750 mmHg 45%
    14:00 +25°C° 0 mm 1 m/s 750 mmHg 45%
    15:00 +24°C° 0 mm 1 m/s 749 mmHg 50%
    16:00 +23°C° 0 mm 1 m/s 749 mmHg 55%
    17:00 +22°C° 0 mm 1 m/s 749 mmHg 61%
    18:00 +21°C° 0 mm 1 m/s 749 mmHg 63%
    19:00 +20°C° 0 mm 1 m/s 749 mmHg 64%
    20:00 +20°C° 0 mm 1 m/s 749 mmHg 66%
    21:00 +20°C° 0 mm 1 m/s 748 mmHg 67%
    22:00 +19°C° 0 mm 1 m/s 748 mmHg 68%
    23:00 +19°C° 0 mm 1 m/s 748 mmHg 69%

    28 Outubro, Sábado

    Tempo Temperatura Precipitação Vento Pressão Humidade
    00:00 +19°C° 0 mm 1 m/s 748 mmHg 70%
    01:00 +18°C° 0 mm 1 m/s 747 mmHg 70%
    02:00 +17°C° 0 mm 2 m/s 747 mmHg 70%
    03:00 +18°C° 0 mm 1 m/s 747 mmHg 70%
    04:00 +18°C° 0 mm 1 m/s 747 mmHg 69%
    05:00 +18°C° 0 mm 1 m/s 747 mmHg 69%
    06:00 +19°C° 0 mm 1 m/s 747 mmHg 65%
    07:00 +20°C° 0 mm 1 m/s 747 mmHg 61%
    08:00 +21°C° 0 mm 1 m/s 747 mmHg 57%
    09:00 +22°C° 0 mm 1 m/s 747 mmHg 53%
    10:00 +23°C° 0 mm 1 m/s 747 mmHg 49%
    11:00 +24°C° 0 mm 1 m/s 747 mmHg 45%
    12:00 +24°C° 0 mm 2 m/s 747 mmHg 46%
    13:00 +24°C° 0 mm 2 m/s 746 mmHg 47%
    14:00 +24°C° 0 mm 2 m/s 746 mmHg 48%
    15:00 +23°C° 0 mm 2 m/s 746 mmHg 54%
    16:00 +21°C° 0 mm 2 m/s 746 mmHg 60%
    17:00 +20°C° 0 mm 3 m/s 746 mmHg 67%
    18:00 +20°C° 0 mm 3 m/s 746 mmHg 70%
    19:00 +19°C° 0 mm 2 m/s 746 mmHg 73%
    20:00 +18°C° 0 mm 2 m/s 747 mmHg 76%
    21:00 +18°C° 0 mm 2 m/s 747 mmHg 77%
    22:00 +18°C° 0 mm 2 m/s 746 mmHg 78%
    23:00 +17°C° 0 mm 2 m/s 746 mmHg 78%

    29 Outubro, Domingo

    Tempo Temperatura Precipitação Vento Pressão Humidade
    00:00 +17°C° 0 mm 3 m/s 746 mmHg 78%
    01:00 +17°C° 0 mm 3 m/s 746 mmHg 78%
    02:00 +17°C° 0 mm 3 m/s 746 mmHg 78%
    03:00 +17°C° 0 mm 3 m/s 746 mmHg 78%
    04:00 +16°C° 0 mm 3 m/s 746 mmHg 78%
    05:00 +16°C° 0 mm 3 m/s 745 mmHg 78%
    06:00 +17°C° 0 mm 3 m/s 745 mmHg 74%
    07:00 +18°C° 0 mm 3 m/s 746 mmHg 69%
    08:00 +19°C° 0 mm 3 m/s 746 mmHg 65%
    09:00 +20°C° 0 mm 3 m/s 745 mmHg 61%
    10:00 +21°C° 0 mm 3 m/s 745 mmHg 58%
    11:00 +22°C° 0 mm 4 m/s 745 mmHg 54%
    12:00 +22°C° 0 mm 4 m/s 745 mmHg 56%
    13:00 +22°C° 0 mm 5 m/s 744 mmHg 58%
    14:00 +22°C° 0 mm 5 m/s 744 mmHg 61%
    15:00 +22°C° 0,1 mm 5 m/s 744 mmHg 66%
    16:00 +21°C° 0,1 mm 5 m/s 744 mmHg 71%
    17:00 +20°C° 0,1 mm 5 m/s 743 mmHg 76%
    18:00 +20°C° 0,1 mm 5 m/s 744 mmHg 78%
    19:00 +19°C° 0,1 mm 5 m/s 744 mmHg 79%
    20:00 +18°C° 0,1 mm 4 m/s 744 mmHg 81%
    21:00 +17°C° 0,1 mm 5 m/s 744 mmHg 81%
    22:00 +17°C° 0,1 mm 5 m/s 744 mmHg 81%
    23:00 +17°C° 0,1 mm 5 m/s 745 mmHg 81%
    Mostrar mais